TimeCDT,TemperatureF,Dew PointF,Humidity,Sea Level PressureIn,VisibilityMPH,Wind Direction,Wind SpeedMPH,Gust SpeedMPH,PrecipitationIn,Events,Conditions,WindDirDegrees,DateUTC
12:55 AM,48.2,39.2,71,30.00,10.0,SSE,12.7,-,N/A,,Overcast,150,2012-10-13 05:55:00
1:15 AM,48.2,39.2,71,30.00,10.0,SSE,12.7,-,N/A,,Overcast,150,2012-10-13 06:15:00
1:35 AM,48.2,41.0,76,29.99,10.0,SSE,10.4,-,N/A,,Overcast,160,2012-10-13 06:35:00
1:55 AM,50.0,41.0,71,29.98,10.0,SSE,8.1,-,N/A,,Overcast,160,2012-10-13 06:55:00
2:15 AM,50.0,42.8,76,29.95,8.0,South,11.5,-,N/A,,Overcast,180,2012-10-13 07:15:00
2:35 AM,50.0,44.6,82,29.93,10.0,South,16.1,-,N/A,,Overcast,170,2012-10-13 07:35:00
2:55 AM,50.0,44.6,82,29.91,10.0,South,11.5,20.7,N/A,,Overcast,170,2012-10-13 07:55:00
3:15 AM,50.0,44.6,82,29.91,10.0,South,17.3,-,N/A,,Overcast,190,2012-10-13 08:15:00
3:35 AM,50.0,46.4,87,29.90,10.0,South,13.8,19.6,N/A,,Overcast,180,2012-10-13 08:35:00
3:55 AM,50.0,44.6,82,29.90,10.0,SSE,9.2,15.0,N/A,,Overcast,160,2012-10-13 08:55:00
4:15 AM,50.0,46.4,87,29.90,10.0,South,12.7,19.6,N/A,,Overcast,190,2012-10-13 09:15:00
4:35 AM,50.0,46.4,87,29.88,9.0,South,11.5,-,N/A,,Overcast,170,2012-10-13 09:35:00
4:55 AM,50.0,46.4,87,29.87,10.0,South,8.1,-,N/A,,Overcast,170,2012-10-13 09:55:00
5:15 AM,51.8,46.4,82,29.86,10.0,South,10.4,-,N/A,,Overcast,170,2012-10-13 10:15:00
5:35 AM,50.0,46.4,87,29.86,7.0,SE,5.8,-,N/A,,Overcast,130,2012-10-13 10:35:00
5:55 AM,50.0,46.4,87,29.85,2.5,SE,5.8,-,N/A,,Overcast,130,2012-10-13 10:55:00
6:15 AM,48.2,48.2,100,29.86,2.0,SSE,4.6,-,N/A,,Light Drizzle,160,2012-10-13 11:15:00
6:35 AM,50.0,50.0,100,29.86,2.0,South,12.7,-,N/A,,Light Drizzle,170,2012-10-13 11:35:00
6:55 AM,50.0,50.0,100,29.83,3.0,South,12.7,-,N/A,Rain,Light Rain,170,2012-10-13 11:55:00
7:15 AM,50.0,50.0,100,29.80,3.0,SSE,9.2,-,N/A,Rain,Light Rain,150,2012-10-13 12:15:00
7:35 AM,51.8,50.0,94,29.78,3.0,SSE,15.0,-,N/A,Rain,Light Rain,160,2012-10-13 12:35:00
7:55 AM,51.8,50.0,94,29.76,2.5,SSE,4.6,16.1,0.09,,Light Drizzle,150,2012-10-13 12:55:00
8:15 AM,51.8,51.8,100,29.74,2.5,SSE,12.7,20.7,N/A,,Light Drizzle,160,2012-10-13 13:15:00
8:55 AM,53.6,53.6,100,29.76,2.5,South,16.1,-,0.01,,Light Drizzle,180,2012-10-13 13:55:00
9:35 AM,55.4,55.4,100,29.75,3.0,South,18.4,24.2,N/A,,Overcast,190,2012-10-13 14:35:00
9:55 AM,57.2,57.2,100,29.75,4.0,South,17.3,-,0.01,,Overcast,190,2012-10-13 14:55:00
10:15 AM,59.0,57.2,94,29.76,6.0,SSW,16.1,-,N/A,,Overcast,200,2012-10-13 15:15:00
10:35 AM,59.0,59.0,100,29.75,8.0,South,16.1,-,N/A,,Overcast,190,2012-10-13 15:35:00
10:55 AM,60.8,59.0,94,29.74,9.0,South,12.7,19.6,N/A,,Overcast,190,2012-10-13 15:55:00
11:15 AM,60.8,60.8,100,29.74,10.0,SSW,16.1,21.9,N/A,,Overcast,200,2012-10-13 16:15:00
11:35 AM,62.6,60.8,94,29.74,9.0,SSW,13.8,21.9,N/A,,Overcast,200,2012-10-13 16:35:00
11:55 AM,62.6,60.8,94,29.73,8.0,SSW,16.1,-,N/A,,Overcast,200,2012-10-13 16:55:00
12:35 PM,64.4,62.6,94,29.71,8.0,SSW,12.7,-,N/A,,Overcast,200,2012-10-13 17:35:00
12:55 PM,66.2,62.6,88,29.70,9.0,SSW,16.1,-,N/A,,Overcast,200,2012-10-13 17:55:00
1:15 PM,68.0,62.6,83,29.68,9.0,SSW,21.9,-,N/A,,Mostly Cloudy,200,2012-10-13 18:15:00
1:35 PM,69.8,62.6,78,29.67,10.0,SSW,19.6,25.3,N/A,,Mostly Cloudy,200,2012-10-13 18:35:00
1:55 PM,68.0,62.6,83,29.67,9.0,SSW,20.7,-,N/A,,Overcast,200,2012-10-13 18:55:00
2:15 PM,69.8,62.6,78,29.66,10.0,South,20.7,-,N/A,,Overcast,190,2012-10-13 19:15:00
2:35 PM,69.8,64.4,83,29.66,10.0,South,20.7,-,N/A,,Overcast,190,2012-10-13 19:35:00
2:55 PM,69.8,64.4,83,29.65,9.0,South,18.4,25.3,N/A,,Overcast,190,2012-10-13 19:55:00
3:15 PM,69.8,62.6,78,29.64,10.0,SSW,20.7,27.6,N/A,,Overcast,200,2012-10-13 20:15:00
3:35 PM,71.6,62.6,73,29.64,10.0,SSW,18.4,25.3,N/A,,Overcast,200,2012-10-13 20:35:00
3:55 PM,71.6,62.6,73,29.64,10.0,SSW,16.1,25.3,N/A,,Mostly Cloudy,200,2012-10-13 20:55:00
4:15 PM,71.6,62.6,73,29.65,10.0,SSW,12.7,19.6,N/A,,Overcast,210,2012-10-13 21:15:00
4:35 PM,71.6,60.8,69,29.65,10.0,SSW,16.1,-,N/A,,Overcast,210,2012-10-13 21:35:00
4:55 PM,71.6,60.8,69,29.65,10.0,SW,16.1,-,N/A,,Overcast,220,2012-10-13 21:55:00
5:15 PM,71.6,60.8,69,29.65,10.0,SW,15.0,-,N/A,,Overcast,220,2012-10-13 22:15:00
5:35 PM,69.8,60.8,73,29.65,10.0,SW,12.7,-,N/A,,Overcast,220,2012-10-13 22:35:00
5:55 PM,69.8,60.8,73,29.66,10.0,SW,12.7,-,N/A,,Overcast,220,2012-10-13 22:55:00
6:15 PM,69.8,59.0,68,29.67,10.0,SW,13.8,-,N/A,,Overcast,230,2012-10-13 23:15:00
6:35 PM,68.0,59.0,73,29.67,10.0,SW,10.4,-,N/A,,Overcast,220,2012-10-13 23:35:00
6:55 PM,68.0,59.0,73,29.67,10.0,SW,9.2,-,N/A,,Overcast,230,2012-10-13 23:55:00
7:35 PM,66.2,59.0,78,29.68,10.0,West,9.2,-,N/A,,Overcast,260,2012-10-14 00:35:00
7:55 PM,66.2,59.0,78,29.68,10.0,West,8.1,-,N/A,,Overcast,260,2012-10-14 00:55:00
9:15 PM,60.8,57.2,88,29.68,10.0,NE,9.2,-,N/A,,Overcast,50,2012-10-14 02:15:00
9:35 PM,60.8,57.2,88,29.69,9.0,NE,8.1,-,N/A,,Overcast,40,2012-10-14 02:35:00
9:55 PM,59.0,57.2,94,29.70,8.0,NNE,9.2,-,N/A,,Overcast,20,2012-10-14 02:55:00
10:15 PM,59.0,57.2,94,29.70,9.0,NE,9.2,-,N/A,,Overcast,40,2012-10-14 03:15:00
11:15 PM,59.0,55.4,88,29.68,7.0,NE,12.7,-,N/A,,Overcast,40,2012-10-14 04:15:00
11:35 PM,59.0,55.4,88,29.68,7.0,NE,10.4,-,N/A,,Overcast,40,2012-10-14 04:35:00